Regional Weather Roundup
Issued by NWS

Home | Current Version | Previous Version | Graphics & Text | Print | Product List | Glossary On
Versions: 1 2 3 4 5 6 7 8 9 10 11 12 13 14 15 16 17 18 19 20 21 22 23 24 25 26 27 28 29 30 31 32 33 34 35 36 37 38 39 40 41 42 43 44 45 46 47 48 49 50
000
ASUS43 KOAX 280302
RWRNE

WEATHER ROUNDUP FOR NEBRASKA
NATIONAL WEATHER SERVICE OMAHA NE
1000 PM CDT SAT MAY 27 2017

NOTES: SATELLITE DATA IS BEING USED TO AUGMENT CLOUD COVER ABOVE
       12000 FEET.
       "FAIR" INDICATES FEW OR NO CLOUDS BELOW 12,000 FEET WITH NO
       SIGNIFICANT WEATHER AND/OR OBSTRUCTIONS TO VISIBILITY.

  * THESE STATIONS DO NOT REPORT WEATHER SUCH AS RAIN...SNOW OR FOG.

NEZ001>004-019>022-054>056-280400-
NEBRASKA PANHANDLE

CITY           SKY/WX    TMP DP  RH WIND       PRES   REMARKS
SCOTTSBLUFF    CLEAR     53  47  79 CALM      30.12R
ALLIANCE       CLEAR     48  43  82 SW9       30.09R
CHADRON        PTCLDY    51  45  79 W5        30.06R
GORDON         FAIR      55  43  65 W8        30.05S
KIMBALL        CLEAR     51  40  65 CALM      30.17S
SIDNEY         CLEAR     45  41  86 W6        30.14R
$$

NEZ057>060-069>072-079>082-280400-
SOUTHWEST NEBRASKA

CITY           SKY/WX    TMP DP  RH WIND       PRES   REMARKS
NORTH PLATTE   CLEAR     55  51  86 S3        30.05R
IMPERIAL       CLEAR     54  48  80 CALM      30.10R
LEXINGTON      CLOUDY    55  51  85 NW7       30.05R
MCCOOK         CLOUDY    56  51  84 NW7       30.07R
OGALLALA       CLEAR     51  45  80 NW6       30.08S
$$

NEZ005>010-023>029-035>040-094-280400-
NORTH CENTRAL NEBRASKA

CITY           SKY/WX    TMP DP  RH WIND       PRES   REMARKS
VALENTINE      CLOUDY    57  43  59 W9        29.99S
AINSWORTH      LGT RAIN  57  47  71 SW8       29.99S
BROKEN BOW     PTCLDY    57  52  83 W9        30.02R
O`NEILL        PTCLDY    55  51  86 SW3       29.97S
ORD            PTCLDY    54  50  86 SW6       29.98S
THEDFORD       CLEAR     57  46  68 W3        30.03F
$$

NEZ041-046>049-061>064-073>077-083>087-280400-
SOUTH CENTRAL NEBRASKA

CITY           SKY/WX    TMP DP  RH WIND       PRES   REMARKS
GRAND ISLAND   CLEAR     60  53  77 NW7       29.99R
AURORA         CLEAR     61  52  71 NW9       29.97R
HASTINGS       CLEAR     62  53  72 NW9       30.00R
HEBRON         PTCLDY    66  55  66 N7        29.94R
HOLDREGE       PTCLDY    59  52  77 NW6       30.04R
KEARNEY *      CLEAR     61  50  67 NW7       30.02R
YORK           MOCLDY    64  52  63 N8        29.96R
$$

NEZ011>018-030>034-042>045-280400-
NORTHEAST NEBRASKA

CITY           SKY/WX    TMP DP  RH WIND       PRES   REMARKS
NORFOLK        CLEAR     57  49  74 NW5       29.95S
ALBION         CLEAR     56  51  82 NW5       29.97S
BLAIR          CLOUDY    63  54  73 NW3       29.91S
FREMONT        CLEAR     65  52  62 N5        29.92S
TEKAMAH        PTCLDY    63  51  65 N8        29.90F
WAYNE          CLOUDY    58  51  79 NW6       29.94S
$$

NEZ050>053-065>068-078-088>093-280400-
SOUTHEAST NEBRASKA

CITY           SKY/WX    TMP DP  RH WIND       PRES   REMARKS
LINCOLN        CLEAR     66  58  75 NW6       29.92S
OMAHA EPPLEY   CLOUDY    64  55  72 CALM      29.90R
BEATRICE       CLEAR     63  59  86 NE3       29.91R
FALLS CITY     CLEAR     63  59  87 N5        29.88R
NEBRASKA CITY  CLEAR     63  57  82 N5        29.89S
PLATTSMOUTH    PTCLDY    65  56  74 CALM      29.90S
$$

NEZ044-045-051>053-067-280400-
OMAHA AREA

CITY           SKY/WX    TMP DP  RH WIND       PRES   REMARKS
OMAHA EPPLEY   CLOUDY    64  55  72 CALM      29.90R
BLAIR          CLOUDY    63  54  73 NW3       29.91S
FREMONT        CLEAR     65  52  62 N5        29.92S
MILLARD        CLEAR     64  56  77 CALM      29.90S
OFFUTT AFB     CLOUDY    60  55  85 N3        29.89S
PLATTSMOUTH    PTCLDY    65  56  74 CALM      29.90S
WAHOO          FAIR      62  54  76 NW3       29.92S
$$




USA.gov is the U.S. government's official web portal to all federal, state and local government web resources and services.